SRSS-1

Last updated on Wed Dec 04 2019 00:02:04 GMT+0000 (Coordinated Universal Time)

1 44704U 19072B 19336.95800094 .00001003 00000-0 44828-4 0 9999 2 44704 97.4929 49.6578 0016313 169.9337 304.8520 15.23576808 4531
UTC large
Height (km)
Speed (km/s)
/
Latitude / Longitude
Inclination (degrees)
Orbital Period (minutes)
Azimuth
Elevation
Range (km)
Doppler Factor

Next 0 passes for location: London (51.5072 / 0.1276)

Sorry there are no passes over London.